[Date Prev][Date Next][Thread Prev][Thread Next] - [Date Index][Thread Index][Author Index]
2 Line ISS Keps 5-28
- Subject: [sarex] 2 Line ISS Keps 5-28
- From: "Dave Larsen PhD" <doc@xxxxxxxxxxx>
- Date: Tue, 28 May 2002 04:08:47 -0700
ISS
1 25544U 98067A 02148.21430503 .00024944 00000-0 30778-3 0 5013
2 25544 51.6339 153.3568 0006518 122.1220 296.9785 15.59993477200917
----
Via the sarex mailing list at AMSAT.ORG courtesy of AMSAT-NA.
To unsubscribe, send "unsubscribe sarex" to Majordomo@amsat.org
AMSAT Home